Weather Roundup
Issued by NWS Springfield, MO

Home | Current Version | Previous Version | Text Only | Print | Product List | Glossary On
Versions: 1 2 3 4 5 6 7 8 9 10 11 12 13 14 15 16 17 18 19 20 21 22 23 24 25 26 27 28 29 30 31 32 33 34 35 36 37 38 39 40 41 42 43 44 45 46 47 48 49 50
000
NZUS99 KSGF 041507
HRRSGF

HOURLY WEATHER
NATIONAL WEATHER SERVICE SPRINGFIELD MO
900 AM CST SUN DEC 04 2016

......SGF CWA......

CITY           SKY/WX    TMP DP  RH WIND       PRES   REMARKS
SPRINGFIELD    LGT RAIN  39  37  92 VRB6      30.01R WCI  35
JOPLIN         CLOUDY    41  41 100 S5        30.02F
WEST PLAINS    CLOUDY    38  37  97 S3        30.02R FOG
ROLLA          LGT RAIN  36  36 100 S6        29.99R FOG     WCI  31
OSAGE BEACH    LGT RAIN  37  36  96 SW3       30.03R FOG
BRANSON        LGT RAIN  37  37 100 CALM      30.02S FOG

......SURROUNDING SGF CWA......

CITY           SKY/WX    TMP DP  RH WIND       PRES   REMARKS
CHANUTE        CLOUDY    42  39  89 NW8       30.04R
PARSONS        CLOUDY    42  41  96 W7        30.06R
COFFEYVILLE    CLOUDY    43  41  93 W6        30.06R
EMPORIA        PTSUNNY   39  37  92 W5        30.03R
GROVE OK       CLOUDY    45  45 100 CALM      30.04S
ROGERS AR      LGT RAIN  41  41 100 W6        30.03R
SILOAM SPRINGS CLOUDY    43  39  87 W6        30.03R
HARRISON AR    LGT RAIN  39  39 100 CALM      30.02S FOG
NEAR YELLVILLE CLOUDY    39  36  87 CALM      30.02R

......KANSAS AND MISSOURI......

CITY           SKY/WX    TMP DP  RH WIND       PRES   REMARKS
KANSAS CTY INT LGT RAIN  37  34  89 W7        30.01R WCI  32
DOWNTOWN KC    CLOUDY    39  36  89 W6        30.02R WCI  35
COLUMBIA       LGT RAIN  36  35  96 S5        30.02R FOG     WCI  32
SEDALIA        LGT SNOW  34  32  92 S3        30.03R FOG
ST JOSEPH      CLOUDY    36  35  96 S6        30.01F WCI  31
ST LOUIS       LGT RAIN  38  34  85 SE3       30.03R FOG
SPIRIT OF STL  LGT RAIN  38  37  97 CALM      30.03R FOG
KIRKSVILLE     SNOW      33  33 100 SE7       30.00F VSB 1/2 WCI  27
WICHITA        CLOUDY    40  37  89 NW12      30.06R WCI  33
TOPEKA         PTSUNNY   39  37  92 SW3       30.02F
OLATHE         CLOUDY    36  34  92 W8        30.02S WCI  30

......TENNESSEE......

CITY           SKY/WX    TMP DP  RH WIND       PRES   REMARKS
MEMPHIS        CLOUDY    47  45  93 SE8       29.97S
NASHVILLE      DRIZZLE   44  42  93 SE9       30.06S

......ARKANSAS.......

CITY           SKY/WX    TMP DP  RH WIND       PRES   REMARKS
FAYETTEVILLE   CLOUDY    42  42 100 W5        30.02S FOG
FT SMITH       LGT RAIN  44  41  89 CALM      30.04S FOG
LITTLE ROCK    DRIZZLE   42  42 100 N6        30.04R FOG

......OKLAHOMA.......

CITY           SKY/WX    TMP DP  RH WIND       PRES   REMARKS
TULSA          CLOUDY    45  44  97 W7        30.05R
PONCA CITY     CLOUDY    45  42  89 NW7       30.07R
MCALESTER      CLOUDY    47  43  86 N3        30.05R
OKLAHOMA CITY  CLOUDY    45  42  89 N10       30.07R

......IOWA............

CITY           SKY/WX    TMP DP  RH WIND       PRES   REMARKS
DES MOINES     LGT SNOW  34  33  96 S7        29.98S FOG     WCI  28
QUAD CITIES    HVY SNOW  32  30  92 SE6       30.07S VSB 1/4 WCI  26

......ILLINOIS........

CITY           SKY/WX    TMP DP  RH WIND       PRES   REMARKS
QUINCY         SNOW      33  33 100 E5        30.02F VSB 1/4 WCI  29
CHICAGO        CLOUDY    33  26  75 SE7       30.12F WCI  27



USA.gov is the U.S. government's official web portal to all federal, state and local government web resources and services.